�N����,����,�~����,�C��,���x,�C��,����,���ϕ���,�ő�u�ԕ���,�ő厞����,���˗�,�I�_���x,�n�����x,�ő啗���N��,DTYPE
"20/06/19","00:10",0.0,18.5,94.4,997.0,5.5,0.5,1.3,355.1,0.00,17.6,21.2,"00:04:00",1
"20/06/19","00:20",0.0,18.4,94.5,996.3,326.3,0.7,1.6,343.7,0.00,17.5,20.9,"00:16:02",1
"20/06/19","00:30",0.0,18.3,94.5,996.5,277.5,1.0,2.2,309.4,0.00,17.4,21.1,"00:29:28",1
"20/06/19","00:40",0.0,18.2,94.6,996.5,298.7,1.7,2.5,310.7,0.00,17.4,21.2,"00:32:56",1
"20/06/19","00:50",0.0,18.1,94.6,996.7,295.8,0.8,1.7,283.9,0.00,17.3,21.1,"00:40:08",1
"20/06/19","01:00",0.0,18.0,94.6,995.8,285.7,1.0,1.9,327.5,0.00,17.2,20.9,"00:50:32",1
"20/06/19","01:10",0.0,18.0,94.7,996.0,299.2,0.6,1.4,297.3,0.00,17.2,20.7,"01:08:58",1
"20/06/19","01:20",0.0,18.0,94.7,996.0,286.2,1.3,3.4,327.0,0.00,17.2,20.8,"01:13:44",1
"20/06/19","01:30",0.0,18.0,94.8,995.8,285.6,1.3,1.8,316.8,0.00,17.2,20.9,"01:26:00",1
"20/06/19","01:40",0.0,18.0,94.8,995.3,255.2,1.2,2.1,238.6,0.00,17.2,20.7,"01:32:08",1
"20/06/19","01:50",0.0,18.1,95.0,994.8,224.8,1.3,2.5,161.9,0.00,17.3,20.7,"01:49:56",1
"20/06/19","02:00",0.0,18.0,95.0,994.8,301.6,1.3,2.6,325.9,0.00,17.2,20.8,"01:59:12",1
"20/06/19","02:10",0.0,18.0,95.1,994.6,279.6,1.3,1.9,314.7,0.00,17.2,20.7,"02:00:32",1
"20/06/19","02:20",0.0,18.0,95.1,994.6,235.3,0.6,1.4,243.7,0.00,17.2,20.6,"02:19:44",1
"20/06/19","02:30",0.0,18.0,95.2,993.9,317.6,0.8,1.8,336.3,0.00,17.3,20.8,"02:27:04",1
"20/06/19","02:40",0.0,17.9,95.2,994.1,335.7,0.8,2.4,64.1,0.00,17.2,20.6,"02:36:58",1
"20/06/19","02:50",0.0,17.9,95.3,994.1,331.1,0.8,3.5,321.5,0.00,17.2,20.6,"02:47:52",1
"20/06/19","03:00",0.0,17.8,95.4,993.4,258.9,0.7,1.4,147.6,0.00,17.1,20.6,"02:56:24",1
"20/06/19","03:10",0.0,17.8,95.4,995.1,307.7,3.2,5.8,309.5,0.00,17.1,20.5,"03:04:40",1
"20/06/19","03:20",0.0,17.8,95.5,994.8,317.6,2.3,4.4,315.1,0.00,17.1,20.6,"03:19:28",1
"20/06/19","03:30",0.0,17.7,95.6,994.4,319.8,2.1,3.9,335.8,0.00,17.0,20.5,"03:27:44",1
"20/06/19","03:40",0.0,17.7,95.7,994.6,265.7,1.3,3.7,316.6,0.00,17.0,20.6,"03:30:48",1
"20/06/19","03:50",0.0,17.8,95.7,994.8,248.7,2.0,3.5,246.0,0.00,17.1,20.6,"03:45:20",1
"20/06/19","04:00",0.0,17.8,95.7,995.1,280.6,0.7,1.6,233.7,0.00,17.1,20.5,"03:54:16",1
"20/06/19","04:10",0.0,17.8,95.8,994.4,289.9,0.6,1.1,257.8,0.00,17.2,20.5,"04:00:24",1
"20/06/19","04:20",0.0,17.7,95.8,994.6,277.9,0.7,1.1,303.7,0.00,17.1,20.3,"04:12:00",1
"20/06/19","04:30",0.0,17.7,95.9,994.6,269.5,0.7,1.2,254.2,0.00,17.1,20.4,"04:25:26",1
"20/06/19","04:40",0.0,17.7,95.9,994.8,278.6,0.6,1.4,236.6,0.00,17.1,20.6,"04:37:34",1
"20/06/19","04:50",0.0,17.7,96.0,995.3,304.2,0.6,1.4,332.9,0.00,17.1,20.2,"04:42:40",1
"20/06/19","05:00",0.0,17.7,96.0,994.8,285.0,0.7,1.3,327.8,0.00,17.1,20.4,"04:57:40",1
"20/06/19","05:10",0.0,17.7,96.1,995.3,291.7,0.8,1.3,313.1,0.00,17.1,20.2,"05:00:44",1
"20/06/19","05:20",0.0,17.7,96.1,994.8,280.5,0.6,1.1,320.1,0.00,17.1,20.2,"05:11:04",1
"20/06/19","05:30",0.0,17.7,96.1,994.8,304.1,1.0,1.8,322.1,0.00,17.1,20.3,"05:24:40",1
"20/06/19","05:40",0.0,17.8,96.2,995.1,287.3,1.0,1.7,305.4,0.00,17.2,20.3,"05:38:54",1
"20/06/19","05:50",0.0,17.8,96.2,995.1,265.2,0.8,1.8,305.6,0.00,17.2,20.4,"05:41:26",1
"20/06/19","06:00",0.0,17.7,96.3,994.8,272.8,0.7,1.2,292.9,0.00,17.1,20.4,"05:52:26",1
"20/06/19","06:10",0.0,17.8,96.3,994.6,299.7,1.1,1.4,285.6,0.00,17.2,20.2,"06:01:26",1
"20/06/19","06:20",0.0,17.9,96.4,994.8,280.5,0.7,1.4,256.8,0.00,17.4,20.4,"06:13:08",1
"20/06/19","06:30",0.0,17.8,96.4,995.1,269.2,0.7,1.2,256.3,0.00,17.3,20.2,"06:23:20",1
"20/06/19","06:40",0.0,17.9,96.4,995.1,301.1,1.6,2.7,321.9,0.00,17.4,20.3,"06:39:38",1
"20/06/19","06:50",0.0,17.9,96.5,994.8,299.2,0.8,1.4,317.8,0.00,17.4,20.1,"06:40:08",1
"20/06/19","07:00",0.0,18.0,96.5,994.8,272.3,0.6,0.9,325.7,0.01,17.5,20.4,"06:50:46",1
"20/06/19","07:10",0.0,18.0,96.5,994.8,265.5,0.6,1.3,250.2,0.00,17.5,20.2,"07:07:32",1
"20/06/19","07:20",0.0,18.2,96.5,995.1,272.8,0.5,1.0,260.3,0.02,17.7,20.2,"07:15:52",1
"20/06/19","07:30",0.0,18.3,96.5,995.3,275.5,0.5,1.1,265.3,0.02,17.8,20.4,"07:28:12",1
"20/06/19","07:40",0.0,18.4,96.5,994.8,272.1,0.6,1.1,301.8,0.02,17.9,20.5,"07:31:36",1
"20/06/19","07:50",0.0,18.4,96.5,995.3,261.8,0.8,1.4,253.6,0.01,17.9,20.5,"07:40:52",1
"20/06/19","08:00",0.0,18.5,96.5,994.8,295.9,0.5,0.9,262.5,0.02,18.0,20.3,"07:50:10",1
"20/06/19","08:10",0.0,18.5,96.5,995.1,284.8,0.6,1.4,260.0,0.02,18.0,20.5,"08:08:48",1
"20/06/19","08:20",0.0,18.6,96.6,995.1,277.3,0.5,1.1,276.1,0.03,18.1,20.3,"08:10:16",1
"20/06/19","08:30",0.0,18.7,96.6,995.1,272.1,0.5,1.0,262.2,0.03,18.2,20.5,"08:23:20",1
"20/06/19","08:40",0.0,18.7,96.6,995.1,284.2,0.5,0.9,318.6,0.04,18.2,20.5,"08:33:04",1
"20/06/19","08:50",0.0,18.8,96.7,994.8,264.9,0.6,1.1,254.1,0.05,18.3,20.5,"08:44:08",1
"20/06/19","09:00",0.0,18.8,96.7,994.8,249.6,0.6,1.1,255.3,0.07,18.3,20.5,"08:55:36",1
"20/06/19","09:10",0.0,19.0,96.6,994.4,259.5,0.7,1.2,237.8,0.09,18.5,20.6,"09:03:12",1
"20/06/19","09:20",0.0,19.0,96.7,994.6,266.5,0.7,1.1,317.6,0.05,18.5,20.7,"09:11:04",1
"20/06/19","09:30",0.0,19.1,96.7,994.6,251.9,0.8,1.7,256.3,0.05,18.6,20.7,"09:22:16",1
"20/06/19","09:40",0.0,19.3,96.6,994.4,253.5,0.7,1.6,229.6,0.05,18.8,20.6,"09:31:28",1
"20/06/19","09:50",0.0,19.7,96.7,994.1,241.6,0.2,1.0,239.7,0.07,19.2,20.6,"09:41:52",1
"20/06/19","10:00",0.0,19.8,96.6,994.8,323.9,0.3,0.9,345.6,0.10,19.3,20.7,"09:51:04",1
"20/06/19","10:10",0.0,20.1,96.5,994.1,0.0,0.3,1.2,353.0,0.10,19.6,21.0,"10:06:48",1
"20/06/19","10:20",0.0,20.2,96.5,994.6,7.5,0.2,1.0,0.9,0.06,19.7,21.0,"10:10:24",1
"20/06/19","10:30",0.0,19.7,96.6,994.1,317.4,0.5,1.1,342.8,0.03,19.2,20.9,"10:23:12",1
"20/06/19","10:40",0.0,19.7,96.5,994.4,281.9,0.3,0.8,251.8,0.03,19.2,21.2,"10:38:16",1
"20/06/19","10:50",0.0,19.7,96.7,994.4,313.0,0.6,1.6,356.5,0.07,19.2,21.0,"10:47:44",1
"20/06/19","11:00",0.0,20.1,96.5,994.6,287.0,0.7,1.3,349.8,0.11,19.6,21.2,"10:51:28",1
"20/06/19","11:10",0.0,20.3,96.3,994.4,245.8,0.3,1.0,233.0,0.17,19.7,21.2,"11:07:12",1
"20/06/19","11:20",0.0,20.4,96.3,994.4,203.0,0.3,1.3,236.6,0.19,19.8,21.3,"11:14:56",1
"20/06/19","11:30",0.0,20.9,96.0,994.4,234.4,0.3,1.1,239.4,0.23,20.3,21.3,"11:20:56",1
"20/06/19","11:40",0.0,21.2,96.0,993.9,107.3,0.3,1.0,106.2,0.23,20.6,21.3,"11:32:48",1
"20/06/19","11:50",0.0,21.1,96.0,993.7,147.8,0.6,1.6,129.4,0.18,20.5,21.7,"11:44:00",1
"20/06/19","12:00",0.0,21.2,95.9,993.9,174.6,0.3,1.1,212.8,0.16,20.6,21.7,"11:54:24",1
"20/06/19","12:10",0.0,21.2,95.6,994.1,24.0,0.3,1.2,70.2,0.13,20.5,22.0,"12:07:52",1
"20/06/19","12:20",0.0,21.0,95.6,994.4,75.3,0.5,1.0,52.8,0.13,20.3,22.0,"12:12:40",1
"20/06/19","12:30",0.0,21.2,95.5,994.1,238.9,0.3,1.0,350.2,0.15,20.5,22.2,"12:23:36",1
"20/06/19","12:40",0.0,21.3,94.9,993.9,218.4,0.3,1.0,229.9,0.17,20.5,22.1,"12:36:08",1
"20/06/19","12:50",0.0,21.6,94.9,994.1,239.7,0.6,1.2,229.7,0.15,20.8,22.1,"12:49:20",1
"20/06/19","13:00",0.0,20.8,94.4,994.1,302.7,1.2,2.9,342.7,0.09,19.9,22.3,"12:59:04",1
"20/06/19","13:10",0.0,20.7,94.7,994.1,291.4,0.8,1.9,227.2,0.09,19.9,22.5,"13:08:24",1
"20/06/19","13:20",0.0,20.7,94.6,994.6,210.0,0.5,1.2,226.0,0.07,19.8,22.5,"13:15:52",1
"20/06/19","13:30",0.0,20.9,94.5,994.6,191.7,0.6,1.6,229.5,0.10,20.0,22.4,"13:27:12",1
"20/06/19","13:40",0.0,21.4,94.5,994.1,192.7,0.2,0.8,225.8,0.15,20.5,22.5,"13:38:08",1
"20/06/19","13:50",0.0,21.5,93.9,994.4,225.2,0.2,0.8,355.7,0.12,20.5,22.6,"13:46:16",1
"20/06/19","14:00",0.0,21.4,93.9,994.6,335.9,0.5,1.4,245.3,0.08,20.4,22.7,"13:57:52",1
"20/06/19","14:10",0.0,21.3,93.9,994.6,268.1,0.8,2.2,349.0,0.17,20.3,22.6,"14:00:56",1
"20/06/19","14:20",0.0,21.6,93.8,994.4,279.2,0.7,1.3,325.9,0.24,20.6,22.8,"14:10:02",1
"20/06/19","14:30",0.0,21.6,93.5,994.6,279.0,0.7,1.8,323.2,0.18,20.5,22.8,"14:26:56",1
"20/06/19","14:40",0.0,21.8,93.0,994.6,287.5,0.8,1.9,232.6,0.16,20.7,22.7,"14:37:52",1
"20/06/19","14:50",0.0,21.6,92.7,994.8,287.7,0.7,1.3,254.2,0.10,20.4,23.0,"14:40:08",1
"20/06/19","15:00",0.0,21.9,92.3,994.6,328.0,0.7,1.4,345.5,0.10,20.6,22.9,"14:53:20",1
"20/06/19","15:10",0.0,21.7,91.8,995.3,328.3,1.1,2.2,354.4,0.07,20.3,22.8,"15:06:08",1
"20/06/19","15:20",0.0,21.5,91.2,994.8,318.8,1.1,2.4,347.9,0.07,20.0,22.8,"15:14:48",1
"20/06/19","15:30",0.0,21.7,91.1,994.8,328.0,1.0,2.1,348.4,0.12,20.2,22.9,"15:22:32",1
"20/06/19","15:40",0.0,21.7,90.6,994.8,330.9,1.0,1.8,354.3,0.14,20.1,23.0,"15:38:00",1
"20/06/19","15:50",0.0,22.0,90.1,994.8,285.8,0.6,1.3,297.6,0.12,20.3,23.0,"15:40:16",1
"20/06/19","16:00",0.0,21.9,89.3,995.1,294.1,1.1,2.8,239.8,0.12,20.1,23.1,"15:58:24",1
"20/06/19","16:10",0.0,21.9,88.6,995.8,306.7,1.1,2.8,350.3,0.11,20.0,23.2,"16:06:32",1
"20/06/19","16:20",0.0,22.1,87.9,995.6,331.1,1.0,2.7,0.5,0.11,20.0,23.0,"16:12:16",1
"20/06/19","16:30",0.0,21.9,87.2,995.8,301.1,1.0,2.6,315.0,0.06,19.7,22.9,"16:21:36",1
"20/06/19","16:40",0.0,21.7,86.9,995.6,333.2,1.2,2.4,335.2,0.03,19.5,23.2,"16:32:24",1
"20/06/19","16:50",0.0,21.5,86.9,995.8,306.7,1.1,2.4,245.7,0.03,19.3,22.8,"16:46:40",1
"20/06/19","17:00",0.0,21.4,87.1,996.0,319.3,1.0,2.1,327.4,0.02,19.2,23.0,"16:50:24",1
"20/06/19","17:10",0.0,21.3,87.5,996.0,325.9,1.0,2.5,345.8,0.02,19.2,23.1,"17:01:36",1
"20/06/19","17:20",0.0,21.1,87.8,996.3,334.6,1.5,2.6,342.7,0.02,19.0,22.8,"17:15:28",1
"20/06/19","17:30",0.0,21.1,88.1,996.5,329.2,1.3,2.9,348.1,0.02,19.1,22.6,"17:24:32",1
"20/06/19","17:40",0.0,21.2,88.1,995.8,321.6,1.0,3.2,0.8,0.04,19.2,22.7,"17:35:52",1
"20/06/19","17:50",0.0,21.3,87.7,996.3,305.0,0.8,2.2,278.2,0.03,19.2,22.7,"17:44:48",1
"20/06/19","18:00",0.0,21.3,87.1,996.5,307.8,1.0,2.4,325.4,0.01,19.1,22.6,"17:51:36",1
"20/06/19","18:10",0.0,21.2,86.4,996.7,301.0,1.1,2.2,339.3,0.00,18.9,22.4,"18:07:44",1
"20/06/19","18:20",0.0,21.2,86.1,997.0,325.9,1.1,2.5,237.3,0.00,18.8,22.4,"18:10:02",1
"20/06/19","18:30",0.0,21.2,85.9,997.0,334.4,1.2,2.2,355.0,0.00,18.8,22.5,"18:21:52",1
"20/06/19","18:40",0.0,21.1,85.9,997.0,306.4,0.8,1.7,349.0,0.00,18.7,22.6,"18:31:44",1
"20/06/19","18:50",0.0,21.0,86.0,997.0,306.2,0.7,2.6,336.4,0.00,18.6,22.4,"18:41:04",1
"20/06/19","19:00",0.0,20.9,85.9,997.7,300.9,1.1,4.4,327.1,0.00,18.5,22.3,"18:58:16",1
"20/06/19","19:10",0.0,20.8,85.8,997.9,325.1,1.1,2.4,341.4,0.00,18.4,22.3,"19:06:08",1
"20/06/19","19:20",0.0,20.7,85.8,997.9,306.0,0.7,1.8,258.0,0.00,18.3,22.2,"19:12:00",1
"20/06/19","19:30",0.0,20.7,85.9,997.7,332.5,0.5,0.9,353.8,0.00,18.3,22.1,"19:23:12",1
"20/06/19","19:40",0.0,20.5,86.5,998.2,350.8,0.7,1.3,346.4,0.00,18.2,22.0,"19:38:48",1
"20/06/19","19:50",0.0,20.1,87.1,998.2,337.4,1.0,2.2,351.3,0.00,17.9,22.1,"19:49:52",1
"20/06/19","20:00",0.0,20.2,87.2,998.2,342.4,1.7,3.5,345.5,0.00,18.0,22.0,"19:53:12",1
"20/06/19","20:10",0.0,20.2,87.3,998.4,347.5,1.1,2.2,342.8,0.00,18.1,21.9,"20:02:16",1
"20/06/19","20:20",0.0,20.1,87.3,998.6,329.4,0.8,1.8,352.6,0.00,18.0,21.7,"20:11:36",1
"20/06/19","20:30",0.0,20.0,87.3,998.9,275.1,0.6,1.2,257.4,0.00,17.9,21.8,"20:20:32",1
"20/06/19","20:40",0.0,19.9,87.6,999.1,1.2,0.7,2.1,355.0,0.00,17.8,21.8,"20:39:36",1
"20/06/19","20:50",0.0,19.5,88.3,999.3,344.1,1.1,2.4,332.5,0.00,17.6,21.8,"20:48:48",1
"20/06/19","21:00",0.0,19.5,88.7,999.8,343.0,1.1,3.3,339.2,0.00,17.6,21.5,"20:58:00",1
"20/06/19","21:10",0.0,19.4,89.1,999.6,339.6,0.8,1.8,335.6,0.00,17.6,21.8,"21:09:28",1
"20/06/19","21:20",0.0,19.6,89.2,999.6,344.1,1.6,2.6,357.4,0.00,17.8,21.4,"21:12:40",1
"20/06/19","21:30",0.0,19.5,89.2,1000.0,327.6,0.8,1.8,343.1,0.00,17.7,21.4,"21:20:48",1
"20/06/19","21:40",0.0,19.4,89.3,1000.5,341.6,0.7,1.7,338.3,0.00,17.6,21.4,"21:31:28",1
"20/06/19","21:50",0.0,19.3,89.4,1000.5,28.4,0.3,1.1,358.7,0.00,17.6,21.3,"21:47:04",1
"20/06/19","22:00",0.0,19.1,89.6,1000.5,0.1,0.5,1.9,345.0,0.00,17.4,21.2,"21:57:20",1
"20/06/19","22:10",0.0,18.8,90.0,1000.5,350.1,0.6,1.4,351.6,0.00,17.2,21.0,"22:01:44",1
"20/06/19","22:20",0.0,18.7,90.4,1000.5,301.8,0.5,1.0,342.3,0.00,17.1,21.4,"22:18:32",1
"20/06/19","22:30",0.0,18.7,90.7,1000.3,325.6,0.5,1.2,359.5,0.00,17.2,21.2,"22:29:52",1
"20/06/19","22:40",0.0,18.7,91.0,1000.5,47.1,0.5,1.4,4.6,0.00,17.2,21.1,"22:30:40",1
"20/06/19","22:50",0.0,18.8,91.3,1000.8,346.5,0.8,2.1,344.5,0.00,17.4,20.9,"22:40:02",1
"20/06/19","23:00",0.0,19.0,91.5,1000.5,329.0,0.8,1.8,337.2,0.00,17.6,21.0,"22:50:08",1
"20/06/19","23:10",0.0,19.0,91.6,1000.8,306.6,0.5,1.2,314.3,0.00,17.6,20.8,"23:05:04",1
"20/06/19","23:20",0.0,18.9,91.7,1000.8,11.4,0.6,1.2,347.9,0.00,17.6,21.2,"23:13:28",1
"20/06/19","23:30",0.0,18.8,91.9,1001.0,349.8,0.6,1.3,7.6,0.00,17.5,20.8,"23:22:48",1
"20/06/19","23:40",0.0,18.6,92.1,1001.2,321.4,0.5,1.0,331.4,0.00,17.3,20.8,"23:39:28",1
"20/06/19","23:50",0.0,18.6,92.3,1001.2,326.7,0.5,1.1,357.0,0.00,17.4,21.0,"23:41:20",1
"20/06/19","24:00",0.0,18.8,92.4,1001.5,315.4,0.8,1.6,359.7,0.00,17.6,20.9,"23:50:08",1
